| time (UTC) | temp F | wind direction | speed knots | gust knots | rain 1hr in | rain 24hr in | rain mn in | humidity % | barometer mb |
| 20260505091741 | 51 | 294 | 0.0 | 0.0 | 0.00 | 0.00 | 0.00 | 88 | 1012.0 |
| 20260505091239 | 50 | 311 | 0.0 | 0.0 | 0.00 | 0.00 | 0.00 | 90 | 1011.8 |
| 20260505090736 | 50 | 308 | 0.0 | 0.0 | 0.00 | 0.00 | 0.00 | 89 | 1011.7 |
| 20260505090235 | 50 | 310 | 0.0 | 0.0 | 0.00 | 0.00 | 0.00 | 89 | 1011.8 |
| 20260505085732 | 50 | 310 | 0.0 | 0.0 | 0.00 | 0.00 | 0.00 | 89 | 1011.8 |
| 20260505085230 | 50 | 333 | 0.0 | 0.0 | 0.00 | 0.00 | 0.00 | 88 | 1011.7 |
| 20260505084727 | 50 | 276 | 0.0 | 0.0 | 0.00 | 0.00 | 0.00 | 89 | 1011.8 |
| 20260505084226 | 50 | 318 | 0.0 | 0.0 | 0.00 | 0.00 | 0.00 | 90 | 1011.9 |
| 20260505083722 | 50 | 300 | 0.0 | 0.0 | 0.00 | 0.00 | 0.00 | 90 | 1011.7 |
| 20260505083219 | 50 | 296 | 0.0 | 0.0 | 0.00 | 0.00 | 0.00 | 90 | 1011.7 |
| 20260505082715 | 50 | 253 | 0.0 | 0.0 | 0.00 | 0.00 | 0.00 | 90 | 1011.8 |
| 20260505082213 | 50 | 312 | 0.0 | 0.0 | 0.00 | 0.00 | 0.00 | 89 | 1011.8 |
| 20260505081708 | 50 | 272 | 0.0 | 0.0 | 0.00 | 0.00 | 0.00 | 89 | 1011.8 |
| 20260505081206 | 50 | 312 | 0.0 | 0.0 | 0.00 | 0.00 | 0.00 | 90 | 1011.7 |
| 20260505080703 | 50 | 309 | 0.0 | 0.0 | 0.00 | 0.00 | 0.00 | 91 | 1012.2 |
| 20260505080158 | 50 | 310 | 0.0 | 0.0 | 0.00 | 0.00 | 0.00 | 91 | 1011.9 |
| 20260505075654 | 50 | 312 | 0.0 | 0.0 | 0.00 | 0.00 | 0.00 | 91 | 1011.9 |
| 20260505075151 | 50 | 307 | 0.0 | 0.0 | 0.00 | 0.00 | 0.00 | 91 | 1012.0 |
| 20260505074648 | 50 | 313 | 0.0 | 0.0 | 0.00 | 0.00 | 0.00 | 91 | 1011.9 |
| 20260505074145 | 50 | 310 | 0.0 | 0.0 | 0.00 | 0.00 | 0.00 | 91 | 1012.3 |
| 20260505073643 | 50 | 301 | 0.0 | 0.0 | 0.00 | 0.00 | 0.00 | 91 | 1012.2 |
| 20260505073141 | 50 | 318 | 0.0 | 0.0 | 0.00 | 0.00 | 0.00 | 91 | 1012.1 |
| 20260505072636 | 50 | 255 | 0.0 | 0.0 | 0.00 | 0.00 | 0.00 | 91 | 1012.1 |
| 20260505072133 | 50 | 314 | 0.0 | 0.0 | 0.00 | 0.00 | 0.00 | 90 | 1012.3 |
| 20260505071629 | 50 | 312 | 0.0 | 0.0 | 0.00 | 0.00 | 0.00 | 90 | 1012.0 |
| 20260505071127 | 50 | 263 | 0.0 | 0.0 | 0.00 | 0.00 | 0.00 | 90 | 1012.1 |
| 20260505070624 | 50 | 304 | 0.0 | 0.0 | 0.00 | 0.00 | 0.00 | 90 | 1012.0 |
| 20260505070120 | 50 | 308 | 0.0 | 0.0 | 0.00 | 0.00 | 0.00 | 90 | 1012.1 |
| 20260505065616 | 51 | 310 | 0.0 | 0.0 | 0.00 | 0.00 | 0.00 | 89 | 1012.0 |
| 20260505065113 | 51 | 306 | 0.0 | 0.0 | 0.00 | 0.00 | 0.00 | 89 | 1012.0 |
| 20260505064610 | 51 | 254 | 0.0 | 0.0 | 0.00 | 0.00 | 0.00 | 89 | 1012.0 |
| 20260505064108 | 51 | 311 | 0.0 | 0.0 | 0.00 | 0.00 | 0.00 | 89 | 1011.8 |
| 20260505063605 | 51 | 301 | 0.0 | 0.0 | 0.00 | 0.00 | 0.00 | 89 | 1011.8 |
| 20260505063101 | 51 | 310 | 0.0 | 0.0 | 0.00 | 0.00 | 0.00 | 88 | 1011.7 |
| 20260505062557 | 51 | 292 | 0.0 | 0.0 | 0.00 | 0.00 | 0.00 | 88 | 1011.7 |
| 20260505062055 | 51 | 282 | 0.0 | 0.0 | 0.00 | 0.00 | 0.00 | 89 | 1011.7 |
| 20260505061552 | 51 | 255 | 0.0 | 0.0 | 0.00 | 0.00 | 0.00 | 88 | 1011.9 |
| 20260505061050 | 51 | 268 | 0.0 | 0.9 | 0.00 | 0.00 | 0.00 | 88 | 1011.8 |
| 20260505060547 | 51 | 275 | 0.0 | 0.0 | 0.00 | 0.00 | 0.00 | 88 | 1011.7 |
| 20260505060044 | 51 | 316 | 0.0 | 0.0 | 0.00 | 0.00 | 0.00 | 88 | 1011.9 |
| 20260505055539 | 51 | 282 | 0.0 | 0.0 | 0.00 | 0.00 | 0.00 | 88 | 1011.9 |
| 20260505055036 | 51 | 274 | 0.0 | 0.0 | 0.00 | 0.00 | 0.00 | 88 | 1011.7 |
| 20260505054533 | 51 | 325 | 0.0 | 0.0 | 0.00 | 0.00 | 0.00 | 88 | 1011.9 |
| 20260505054032 | 51 | 317 | 0.0 | 0.0 | 0.00 | 0.00 | 0.00 | 88 | 1012.0 |
| 20260505053528 | 51 | 326 | 0.0 | 0.0 | 0.00 | 0.00 | 0.00 | 88 | 1011.8 |
| 20260505053025 | 51 | 260 | 0.0 | 1.7 | 0.00 | 0.00 | 0.00 | 88 | 1011.8 |
| 20260505052522 | 51 | 289 | 0.0 | 0.0 | 0.00 | 0.00 | 0.00 | 88 | 1011.9 |
| 20260505052020 | 51 | 311 | 0.0 | 0.0 | 0.00 | 0.00 | 0.00 | 87 | 1011.8 |
| 20260505051516 | 51 | 259 | 0.0 | 0.0 | 0.00 | 0.00 | 0.00 | 87 | 1011.8 |
| 20260505051014 | 51 | 294 | 0.0 | 0.0 | 0.00 | 0.00 | 0.00 | 87 | 1011.9 |
| 20260505050512 | 51 | 297 | 0.0 | 0.0 | 0.00 | 0.00 | 0.00 | 87 | 1011.7 |
| 20260505041440 | 51 | 257 | 0.0 | 0.0 | 0.00 | 0.00 | 0.00 | 87 | 1012.1 |
| 20260505040937 | 51 | 273 | 0.0 | 0.9 | 0.00 | 0.00 | 0.00 | 86 | 1012.1 |
| 20260505040434 | 51 | 313 | 0.0 | 0.0 | 0.00 | 0.00 | 0.00 | 86 | 1012.1 |
| 20260505035931 | 51 | 272 | 0.0 | 0.0 | 0.00 | 0.00 | 0.00 | 86 | 1012.3 |
| 20260505035427 | 51 | 252 | 0.0 | 0.0 | 0.00 | 0.00 | 0.00 | 86 | 1012.5 |
| 20260505034925 | 51 | 268 | 0.0 | 0.9 | 0.00 | 0.00 | 0.00 | 86 | 1012.3 |
| 20260505034421 | 51 | 309 | 0.0 | 0.0 | 0.00 | 0.00 | 0.00 | 85 | 1012.5 |
| 20260505033918 | 51 | 291 | 0.0 | 0.0 | 0.00 | 0.00 | 0.00 | 85 | 1012.4 |
| 20260505033414 | 51 | 225 | 0.0 | 0.9 | 0.00 | 0.00 | 0.00 | 85 | 1012.5 |
| 20260505032913 | 51 | 264 | 0.0 | 0.0 | 0.00 | 0.00 | 0.00 | 84 | 1012.6 |
| 20260505032409 | 51 | 277 | 2.6 | 7.8 | 0.00 | 0.00 | 0.00 | 84 | 1012.4 |
| 20260505031906 | 51 | 284 | 0.0 | 0.0 | 0.00 | 0.00 | 0.00 | 84 | 1012.5 |
| 20260505031403 | 51 | 281 | 0.0 | 0.0 | 0.00 | 0.00 | 0.00 | 84 | 1012.2 |
| 20260505030900 | 51 | 293 | 0.9 | 1.7 | 0.00 | 0.00 | 0.00 | 83 | 1012.4 |
| 20260505030356 | 51 | 242 | 0.9 | 1.7 | 0.00 | 0.00 | 0.00 | 83 | 1012.5 |
| 20260505025851 | 51 | 291 | 0.0 | 0.0 | 0.00 | 0.00 | 0.00 | 83 | 1012.5 |
| 20260505025349 | 51 | 270 | 4.3 | 9.6 | 0.00 | 0.00 | 0.00 | 82 | 1012.4 |
| 20260505024848 | 52 | 264 | 1.7 | 5.2 | 0.00 | 0.00 | 0.00 | 82 | 1012.5 |
| 20260505024345 | 52 | 297 | 0.0 | 1.7 | 0.00 | 0.00 | 0.00 | 81 | 1012.5 |
| 20260505023842 | 52 | 247 | 2.6 | 6.1 | 0.00 | 0.00 | 0.00 | 81 | 1012.5 |
| 20260505023339 | 52 | 341 | 2.6 | 4.3 | 0.00 | 0.00 | 0.00 | 81 | 1012.5 |
| 20260505022836 | 52 | 266 | 0.0 | 0.9 | 0.00 | 0.00 | 0.00 | 80 | 1012.6 |
| 20260505022333 | 52 | 314 | 0.0 | 0.0 | 0.00 | 0.00 | 0.00 | 80 | 1012.5 |
| 20260505021831 | 52 | 287 | 0.9 | 1.7 | 0.00 | 0.00 | 0.00 | 80 | 1012.5 |
| 20260505021327 | 52 | 255 | 0.0 | 0.0 | 0.00 | 0.00 | 0.00 | 80 | 1012.4 |
| 20260505020823 | 52 | 231 | 0.0 | 1.7 | 0.00 | 0.00 | 0.00 | 79 | 1012.6 |
| 20260505020318 | 52 | 212 | 1.7 | 6.1 | 0.00 | 0.00 | 0.00 | 79 | 1012.4 |
| 20260505015815 | 52 | 189 | 2.6 | 7.0 | 0.00 | 0.00 | 0.00 | 80 | 1012.2 |
| 20260505015313 | 52 | 312 | 0.0 | 0.0 | 0.00 | 0.00 | 0.00 | 79 | 1012.3 |
| 20260505014810 | 53 | 248 | 0.0 | 0.0 | 0.00 | 0.00 | 0.00 | 79 | 1012.4 |
| 20260505014307 | 52 | 230 | 0.0 | 0.0 | 0.00 | 0.00 | 0.00 | 79 | 1012.1 |
| 20260505013803 | 53 | 244 | 1.7 | 5.2 | 0.00 | 0.00 | 0.00 | 79 | 1012.1 |
| 20260505013301 | 53 | 254 | 0.9 | 4.3 | 0.00 | 0.00 | 0.00 | 78 | 1012.0 |
| 20260505012759 | 53 | 262 | 0.0 | 0.0 | 0.00 | 0.00 | 0.00 | 79 | 1011.9 |
| 20260505012256 | 53 | 273 | 0.0 | 0.0 | 0.00 | 0.00 | 0.00 | 78 | 1011.6 |
| 20260505011752 | 53 | 293 | 0.0 | 0.0 | 0.00 | 0.00 | 0.00 | 78 | 1011.5 |
| 20260505011249 | 53 | 258 | 0.0 | 0.0 | 0.00 | 0.00 | 0.00 | 78 | 1011.6 |
| 20260505010744 | 53 | 255 | 0.0 | 0.0 | 0.00 | 0.00 | 0.00 | 77 | 1011.5 |
| 20260505010241 | 53 | 268 | 0.0 | 0.0 | 0.00 | 0.00 | 0.00 | 77 | 1011.6 |
| 20260505005737 | 53 | 301 | 0.9 | 2.6 | 0.00 | 0.00 | 0.00 | 76 | 1011.5 |
| 20260505005234 | 53 | 251 | 3.5 | 7.0 | 0.00 | 0.00 | 0.00 | 75 | 1011.5 |
| 20260505004732 | 53 | 295 | 0.0 | 2.6 | 0.00 | 0.00 | 0.00 | 75 | 1011.2 |
| 20260505004228 | 53 | 289 | 0.0 | 1.7 | 0.00 | 0.00 | 0.00 | 74 | 1011.3 |
| 20260505003725 | 53 | 218 | 0.0 | 0.9 | 0.00 | 0.00 | 0.00 | 73 | 1011.1 |
| 20260505003223 | 53 | 245 | 0.0 | 0.9 | 0.00 | 0.00 | 0.00 | 72 | 1011.1 |
| 20260505002719 | 53 | 265 | 0.0 | 0.9 | 0.00 | 0.00 | 0.00 | 73 | 1010.7 |
| 20260505002217 | 53 | 274 | 4.3 | 7.8 | 0.00 | 0.00 | 0.00 | 73 | 1011.0 |
| 20260505001714 | 53 | 311 | 0.0 | 0.0 | 0.00 | 0.00 | 0.00 | 73 | 1010.8 |
| 20260505001211 | 53 | 264 | 0.0 | 0.0 | 0.00 | 0.00 | 0.00 | 73 | 1010.6 |
| 20260505000708 | 53 | 237 | 0.9 | 2.6 | 0.00 | 0.00 | 0.00 | 73 | 1010.5 |
| 20260505000206 | 53 | 273 | 1.7 | 4.3 | 0.00 | 0.00 | 0.00 | 73 | 1010.5 |
| 20260504235702 | 53 | 294 | 1.7 | 4.3 | 0.00 | 0.00 | 0.00 | 72 | 1010.3 |
| 20260504235158 | 53 | 257 | 1.7 | 4.3 | 0.00 | 0.00 | 0.00 | 71 | 1010.5 |
| 20260504234656 | 53 | 273 | 2.6 | 5.2 | 0.00 | 0.00 | 0.00 | 70 | 1010.3 |
| 20260504234153 | 53 | 309 | 0.9 | 1.7 | 0.00 | 0.00 | 0.00 | 70 | 1010.2 |
| 20260504233649 | 53 | 314 | 0.0 | 0.9 | 0.00 | 0.00 | 0.00 | 70 | 1010.4 |
| 20260504233145 | 53 | 243 | 3.5 | 5.2 | 0.00 | 0.00 | 0.00 | 70 | 1010.4 |
| 20260504232643 | 53 | 280 | 0.0 | 1.7 | 0.00 | 0.00 | 0.00 | 70 | 1010.3 |
| 20260504232139 | 53 | 249 | 0.0 | 0.0 | 0.00 | 0.00 | 0.00 | 69 | 1010.1 |
| 20260504231636 | 53 | 270 | 5.2 | 7.8 | 0.00 | 0.00 | 0.00 | 69 | 1010.1 |
| 20260504231133 | 53 | 272 | 0.0 | 0.9 | 0.00 | 0.00 | 0.00 | 69 | 1010.1 |
| 20260504230629 | 53 | 311 | 0.0 | 0.0 | 0.00 | 0.00 | 0.00 | 69 | 1010.3 |
| 20260504230128 | 54 | 268 | 1.7 | 6.1 | 0.00 | 0.00 | 0.00 | 68 | 1010.0 |
| 20260504225626 | 54 | 278 | 0.0 | 0.0 | 0.00 | 0.00 | 0.00 | 68 | 1010.1 |
| 20260504225121 | 54 | 274 | 0.0 | 0.0 | 0.00 | 0.00 | 0.00 | 67 | 1010.0 |
| 20260504224618 | 54 | 316 | 2.6 | 7.0 | 0.00 | 0.00 | 0.00 | 66 | 1009.8 |
| 20260504224115 | 54 | 290 | 0.0 | 0.0 | 0.00 | 0.00 | 0.00 | 67 | 1010.0 |
| 20260504223612 | 54 | 298 | 0.0 | 0.0 | 0.00 | 0.00 | 0.00 | 67 | 1010.0 |
| 20260504223108 | 54 | 243 | 0.9 | 4.3 | 0.00 | 0.00 | 0.00 | 66 | 1009.9 |
| 20260504222605 | 55 | 281 | 3.5 | 7.0 | 0.00 | 0.00 | 0.00 | 67 | 1010.0 |
| 20260504222102 | 55 | 252 | 0.0 | 0.0 | 0.00 | 0.00 | 0.00 | 67 | 1009.8 |
| 20260504221559 | 54 | 308 | 0.9 | 1.7 | 0.00 | 0.00 | 0.00 | 67 | 1010.1 |
| 20260504221056 | 55 | 290 | 4.3 | 12.2 | 0.00 | 0.00 | 0.00 | 67 | 1010.0 |
| 20260504220553 | 55 | 323 | 0.0 | 0.0 | 0.00 | 0.00 | 0.00 | 66 | 1010.0 |
| 20260504220050 | 55 | 295 | 0.0 | 0.0 | 0.00 | 0.00 | 0.00 | 66 | 1010.2 |
| 20260504215546 | 55 | 235 | 0.9 | 1.7 | 0.00 | 0.00 | 0.00 | 65 | 1010.3 |
| 20260504215044 | 55 | 305 | 0.0 | 0.0 | 0.00 | 0.00 | 0.00 | 65 | 1010.2 |
| 20260504214539 | 55 | 325 | 0.9 | 4.3 | 0.00 | 0.00 | 0.00 | 65 | 1010.4 |
| 20260504214036 | 56 | 276 | 1.7 | 2.6 | 0.00 | 0.00 | 0.00 | 65 | 1010.2 |
| 20260504213532 | 56 | 255 | 4.3 | 7.0 | 0.00 | 0.00 | 0.00 | 64 | 1010.4 |
| 20260504213030 | 56 | 256 | 0.9 | 2.6 | 0.00 | 0.00 | 0.00 | 63 | 1010.3 |
| 20260504212526 | 56 | 292 | 0.0 | 0.9 | 0.00 | 0.00 | 0.00 | 64 | 1010.0 |
| 20260504212023 | 56 | 252 | 0.0 | 0.9 | 0.00 | 0.00 | 0.00 | 64 | 1010.3 |
| 20260504211520 | 56 | 258 | 0.9 | 4.3 | 0.00 | 0.00 | 0.00 | 64 | 1010.4 |
| 20260504211017 | 56 | 301 | 0.0 | 0.0 | 0.00 | 0.00 | 0.00 | 63 | 1010.3 |
| 20260504210514 | 57 | 298 | 1.7 | 11.3 | 0.00 | 0.00 | 0.00 | 63 | 1010.2 |
| 20260504210011 | 57 | 263 | 7.0 | 12.2 | 0.00 | 0.00 | 0.00 | 62 | 1010.2 |
| 20260504205509 | 57 | 263 | 0.0 | 0.0 | 0.00 | 0.00 | 0.00 | 62 | 1010.2 |
| 20260504205006 | 57 | 286 | 1.7 | 2.6 | 0.00 | 0.00 | 0.00 | 61 | 1010.0 |
| 20260504204504 | 57 | 315 | 0.0 | 0.0 | 0.00 | 0.00 | 0.00 | 62 | 1010.0 |
| 20260504204003 | 57 | 330 | 5.2 | 8.7 | 0.00 | 0.00 | 0.00 | 61 | 1010.2 |
| 20260504203500 | 58 | 293 | 0.9 | 1.7 | 0.00 | 0.00 | 0.00 | 60 | 1010.1 |
| 20260504202956 | 57 | 265 | 2.6 | 6.1 | 0.00 | 0.00 | 0.00 | 60 | 1010.0 |
| 20260504202453 | 57 | 251 | 0.0 | 0.0 | 0.00 | 0.00 | 0.00 | 62 | 1010.1 |
| 20260504201950 | 57 | 273 | 0.0 | 0.9 | 0.00 | 0.00 | 0.00 | 61 | 1010.1 |
| 20260504201447 | 57 | 285 | 0.0 | 0.0 | 0.00 | 0.00 | 0.00 | 62 | 1010.2 |
| 20260504200945 | 57 | 249 | 5.2 | 12.2 | 0.00 | 0.00 | 0.00 | 61 | 1009.8 |
| 20260504200441 | 57 | 290 | 0.0 | 1.7 | 0.00 | 0.00 | 0.00 | 62 | 1010.0 |
| 20260504195938 | 57 | 253 | 3.5 | 7.0 | 0.00 | 0.00 | 0.00 | 62 | 1010.4 |
| 20260504195434 | 57 | 302 | 0.0 | 0.0 | 0.00 | 0.00 | 0.00 | 64 | 1010.4 |
| 20260504194930 | 57 | 304 | 0.9 | 6.1 | 0.00 | 0.00 | 0.00 | 64 | 1010.3 |
| 20260504194426 | 57 | 285 | 0.9 | 7.0 | 0.00 | 0.00 | 0.00 | 63 | 1010.3 |
| 20260504193923 | 58 | 15 | 0.0 | 0.0 | 0.00 | 0.00 | 0.00 | 62 | 1010.5 |
| 20260504193420 | 57 | 282 | 0.9 | 2.6 | 0.00 | 0.00 | 0.00 | 62 | 1010.1 |
| 20260504192919 | 57 | 295 | 0.0 | 0.0 | 0.00 | 0.00 | 0.00 | 62 | 1010.2 |
| 20260504192415 | 57 | 288 | 0.9 | 5.2 | 0.00 | 0.00 | 0.00 | 64 | 1010.6 |
| 20260504191914 | 57 | 242 | 11.3 | 13.9 | 0.00 | 0.00 | 0.00 | 61 | 1010.1 |
| 20260504191412 | 57 | 311 | 0.0 | 0.0 | 0.00 | 0.00 | 0.00 | 65 | 1010.5 |
| 20260504190907 | 57 | 260 | 5.2 | 9.6 | 0.00 | 0.00 | 0.00 | 65 | 1010.7 |
| 20260504190403 | 57 | 259 | 0.0 | 0.9 | 0.00 | 0.00 | 0.00 | 66 | 1010.5 |
| 20260504185900 | 57 | 258 | 6.1 | 12.2 | 0.00 | 0.00 | 0.00 | 66 | 1010.6 |
| 20260504185357 | 57 | 254 | 0.0 | 0.0 | 0.00 | 0.00 | 0.00 | 66 | 1010.7 |
| 20260504184853 | 57 | 272 | 0.0 | 0.9 | 0.00 | 0.00 | 0.00 | 66 | 1010.9 |
| 20260504184349 | 57 | 242 | 0.9 | 7.0 | 0.00 | 0.00 | 0.00 | 67 | 1010.7 |
| 20260504183845 | 57 | 282 | 0.0 | 0.9 | 0.00 | 0.00 | 0.00 | 68 | 1010.9 |
| 20260504183343 | 56 | 314 | 0.9 | 4.3 | 0.00 | 0.00 | 0.00 | 67 | 1010.7 |
| 20260504182840 | 57 | 246 | 1.7 | 4.3 | 0.00 | 0.00 | 0.00 | 68 | 1010.8 |
| 20260504182337 | 57 | 300 | 1.7 | 2.6 | 0.00 | 0.00 | 0.00 | 67 | 1010.6 |
| 20260504181834 | 57 | 282 | 0.0 | 0.0 | 0.00 | 0.00 | 0.00 | 68 | 1010.5 |
| 20260504181331 | 57 | 246 | 1.7 | 6.1 | 0.00 | 0.00 | 0.00 | 68 | 1010.6 |
| 20260504180830 | 57 | 315 | 0.0 | 0.0 | 0.00 | 0.00 | 0.00 | 69 | 1010.6 |
| 20260504180328 | 56 | 240 | 3.5 | 8.7 | 0.00 | 0.00 | 0.00 | 67 | 1010.4 |
| 20260504175826 | 56 | 240 | 1.7 | 7.0 | 0.00 | 0.00 | 0.00 | 68 | 1010.4 |
| 20260504175322 | 56 | 249 | 0.9 | 4.3 | 0.00 | 0.00 | 0.00 | 69 | 1010.8 |
| 20260504174821 | 57 | 281 | 0.9 | 1.7 | 0.00 | 0.00 | 0.00 | 67 | 1010.6 |
| 20260504174318 | 56 | 306 | 0.0 | 0.0 | 0.00 | 0.00 | 0.00 | 68 | 1010.8 |
| 20260504173815 | 56 | 292 | 0.9 | 1.7 | 0.00 | 0.00 | 0.00 | 68 | 1010.9 |
| 20260504173311 | 56 | 258 | 0.0 | 0.9 | 0.00 | 0.00 | 0.00 | 68 | 1010.6 |
| 20260504172809 | 56 | 271 | 5.2 | 13.0 | 0.00 | 0.00 | 0.00 | 69 | 1010.5 |
| 20260504172305 | 56 | 317 | 4.3 | 7.8 | 0.00 | 0.00 | 0.00 | 68 | 1010.5 |
| 20260504171801 | 56 | 238 | 0.0 | 0.0 | 0.00 | 0.00 | 0.00 | 70 | 1010.8 |
| 20260504171258 | 56 | 279 | 0.9 | 5.2 | 0.00 | 0.00 | 0.00 | 69 | 1010.7 |
| 20260504170755 | 56 | 273 | 5.2 | 9.6 | 0.00 | 0.00 | 0.00 | 68 | 1010.7 |
| 20260504170252 | 56 | 276 | 8.7 | 13.0 | 0.00 | 0.00 | 0.00 | 68 | 1010.8 |
| 20260504160211 | 56 | 189 | 0.0 | 0.0 | 0.00 | 0.00 | 0.00 | 70 | 1011.1 |
| 20260504151139 | 57 | 273 | 4.3 | 7.0 | 0.00 | 0.00 | 0.00 | 64 | 1011.1 |
| 20260504150636 | 56 | 312 | 0.0 | 0.0 | 0.00 | 0.00 | 0.00 | 68 | 1011.4 |
| 20260504150133 | 57 | 310 | 0.9 | 2.6 | 0.00 | 0.00 | 0.00 | 66 | 1011.7 |
| 20260504141101 | 56 | 271 | 0.0 | 0.0 | 0.00 | 0.00 | 0.00 | 69 | 1011.8 |
| 20260504140558 | 56 | 215 | 1.7 | 4.3 | 0.00 | 0.00 | 0.00 | 64 | 1011.6 |
| 20260504130522 | 57 | 300 | 0.0 | 0.0 | 0.00 | 0.00 | 0.00 | 51 | 1012.0 |
| 20260504110410 | 52 | 323 | 0.0 | 0.0 | 0.00 | 0.00 | 0.00 | 72 | 1012.0 |
| 20260504100326 | 49 | 261 | 0.0 | 0.0 | 0.00 | 0.00 | 0.00 | 78 | 1011.9 |